CW1631 Weather Reports


Display with metric or nautical units.
time (UTC)temp
F
wind
direction
speed
MPH
gust
MPH
rain 1hr
in
rain 24hr
in
rain mn
in
humidity
%
barometer
mb
20260510151105 53 343 3.0 3.0 0.00 0.07 0.07 73 1014.0
20260510150600 52 58 1.0 2.0 0.00 0.07 0.07 75 1013.8
20260510150056 52 85 3.0 5.0 0.00 0.07 0.07 75 1013.6
20260510145553 52 11 3.0 5.0 0.00 0.07 0.07 74 1013.6
20260510145050 53 86 2.0 2.0 0.00 0.07 0.07 75 1013.5
20260510144546 53 330 0.0 1.0 0.00 0.07 0.07 75 1014.1
20260510144042 52 327 2.0 2.0 0.00 0.07 0.07 77 1013.7
20260510143537 51 254 0.0 0.0 0.00 0.07 0.07 79 1013.8
20260510143034 51 106 1.0 1.0 0.00 0.07 0.07 78 1013.5
20260510142531 51 297 3.0 3.0 0.00 0.07 0.07 79 1013.6
20260510142028 51 343 3.0 5.0 0.00 0.07 0.07 77 1013.5
20260510141524 51 280 7.0 7.0 0.00 0.07 0.07 80 1013.8
20260510141022 51 303 3.0 3.0 0.00 0.07 0.07 80 1013.5
20260510140517 52 7 4.0 5.0 0.00 0.07 0.07 81 1013.1
20260510140012 52 314 1.0 1.0 0.00 0.07 0.07 82 1013.1
20260510135508 51 321 2.0 2.0 0.00 0.07 0.07 82 1013.2
20260510135004 51 349 4.0 5.0 0.00 0.07 0.07 81 1013.1
20260510134502 51 351 5.0 6.0 0.00 0.07 0.07 81 1012.8
20260510133958 51 344 5.0 6.0 0.00 0.07 0.07 82 1012.8
20260510133454 51 5 2.0 2.0 0.00 0.07 0.07 83 1012.6
20260510132950 51 14 4.0 6.0 0.00 0.07 0.07 84 1012.6
20260510132447 51 332 6.0 7.0 0.00 0.07 0.07 89 1012.8
20260510131944 51 304 2.0 2.0 0.00 0.07 0.07 93 1012.6
20260510131442 51 354 4.0 5.0 0.00 0.07 0.07 95 1012.8
20260510130939 52 345 8.0 10.0 0.00 0.07 0.07 96 1012.8
20260510130435 52 274 2.0 2.0 0.00 0.07 0.07 97 1012.6
20260510125932 52 271 2.0 2.0 0.00 0.07 0.07 98 1012.5
20260510125428 52 245 2.0 2.0 0.00 0.07 0.07 98 1012.3
20260510124925 52 223 1.0 2.0 0.00 0.07 0.07 98 1012.2
20260510124421 52 231 0.0 1.0 0.00 0.07 0.07 98 1012.2
20260510123918 51 281 1.0 1.0 0.00 0.07 0.07 98 1011.9
20260510123413 51 255 2.0 3.0 0.00 0.07 0.07 98 1011.7
20260510122910 51 227 3.0 3.0 0.00 0.07 0.07 98 1011.7
20260510122405 50 232 3.0 3.0 0.00 0.07 0.07 98 1011.9
20260510121901 50 222 4.0 5.0 0.00 0.07 0.07 98 1011.9
20260510121359 50 237 3.0 5.0 0.00 0.07 0.07 98 1011.9
20260510120856 50 223 2.0 2.0 0.00 0.07 0.07 98 1011.8
20260510120354 50 269 2.0 2.0 0.00 0.07 0.07 98 1011.6
20260510115849 50 297 1.0 2.0 0.00 0.07 0.07 98 1011.5
20260510115346 49 288 0.0 0.0 0.00 0.07 0.07 98 1011.3
20260510114842 49 279 0.0 0.0 0.00 0.07 0.07 98 1011.5
20260510114340 48 278 0.0 0.0 0.00 0.07 0.07 98 1011.5
20260510113839 48 326 1.0 1.0 0.00 0.07 0.07 98 1011.2
20260510113336 48 271 0.0 0.0 0.00 0.07 0.07 98 1011.2
20260510112833 48 271 0.0 1.0 0.00 0.07 0.07 98 1011.1
20260510112330 48 286 0.0 0.0 0.00 0.07 0.07 98 1011.1
20260510111826 48 293 0.0 1.0 0.00 0.07 0.07 98 1011.1
20260510111323 47 268 0.0 0.0 0.00 0.07 0.07 98 1010.9
20260510110823 47 271 0.0 0.0 0.00 0.07 0.07 98 1010.7
20260510110320 47 269 0.0 0.0 0.00 0.07 0.07 98 1010.6
20260510105815 47 250 0.0 1.0 0.00 0.07 0.07 98 1010.8
20260510105310 47 294 1.0 1.0 0.00 0.07 0.07 98 1010.6
20260510104807 47 287 0.0 0.0 0.00 0.07 0.07 98 1010.4
20260510104305 47 275 0.0 0.0 0.00 0.07 0.07 98 1010.3
20260510103801 47 259 0.0 0.0 0.00 0.07 0.07 98 1010.5
20260510103257 47 244 0.0 0.0 0.00 0.07 0.07 98 1010.3
20260510102752 47 280 0.0 0.0 0.00 0.07 0.07 98 1010.0
20260510102248 47 271 0.0 0.0 0.00 0.07 0.07 98 1010.0
20260510101746 47 270 0.0 0.0 0.00 0.07 0.07 98 1009.8
20260510101244 47 270 0.0 0.0 0.00 0.07 0.07 98 1009.8
20260510100740 47 270 0.0 0.0 0.00 0.07 0.07 98 1010.0
20260510100238 47 269 0.0 0.0 0.00 0.07 0.07 98 1009.9
20260510095733 47 262 0.0 0.0 0.00 0.07 0.07 98 1009.9
20260510095228 47 256 0.0 0.0 0.00 0.07 0.07 98 1010.0
20260510094727 47 241 0.0 0.0 0.00 0.07 0.07 98 1009.9
20260510094223 47 207 0.0 0.0 0.00 0.07 0.07 98 1009.9
20260510093719 47 253 0.0 0.0 0.00 0.07 0.07 97 1009.9
20260510093217 47 254 0.0 0.0 0.00 0.07 0.07 97 1009.9
20260510092713 47 280 0.0 0.0 0.00 0.07 0.07 97 1009.8
20260510092209 47 284 0.0 0.0 0.00 0.07 0.07 97 1009.8
20260510091704 47 270 0.0 0.0 0.00 0.07 0.07 97 1009.6
20260510091201 46 269 0.0 0.0 0.00 0.07 0.07 97 1009.6
20260510090658 46 287 0.0 0.0 0.00 0.07 0.07 97 1009.4
20260510090154 46 287 0.0 0.0 0.00 0.07 0.07 97 1009.5
20260510085649 46 287 0.0 0.0 0.00 0.07 0.07 97 1009.4
20260510085145 46 277 0.0 0.0 0.00 0.07 0.07 97 1009.5
20260510084641 46 260 0.0 0.0 0.00 0.07 0.07 97 1009.5
20260510084138 46 260 0.0 0.0 0.00 0.07 0.07 97 1009.6
20260510083635 46 249 0.0 0.0 0.00 0.07 0.07 97 1009.2
20260510083132 46 277 0.0 0.0 0.00 0.07 0.07 97 1009.3
20260510082628 47 280 0.0 0.0 0.00 0.07 0.07 97 1009.2
20260510082123 47 291 0.0 0.0 0.00 0.07 0.07 97 1009.1
20260510081617 47 302 0.0 0.0 0.00 0.07 0.07 97 1008.7
20260510081113 47 103 1.0 1.0 0.00 0.07 0.07 97 1009.2
20260510080608 47 175 1.0 1.0 0.00 0.07 0.07 96 1008.9
20260510080105 47 89 2.0 2.0 0.00 0.07 0.07 97 1008.9
20260510075602 47 289 0.0 0.0 0.00 0.07 0.07 97 1009.1
20260510075058 47 298 0.0 1.0 0.00 0.07 0.07 96 1008.9
20260510074556 47 283 0.0 0.0 0.00 0.07 0.07 96 1009.1
20260510074051 47 276 1.0 1.0 0.00 0.07 0.07 96 1009.1
20260510073548 47 302 0.0 0.0 0.00 0.07 0.07 96 1008.7
20260510073045 48 322 1.0 1.0 0.00 0.07 0.07 95 1008.7
20260510072541 48 203 0.0 1.0 0.00 0.07 0.07 96 1008.7
20260510072037 48 237 0.0 1.0 0.00 0.07 0.07 96 1008.9
20260510071533 48 195 1.0 1.0 0.00 0.07 0.07 96 1008.9
20260510071032 48 300 0.0 1.0 0.00 0.07 0.07 95 1008.6
20260510070528 49 292 0.0 0.0 0.00 0.07 0.07 95 1008.7
20260510070025 49 290 0.0 0.0 0.00 0.07 0.07 94 1008.5
20260510065521 49 268 1.0 1.0 0.00 0.07 0.07 94 1008.8
20260510065017 50 315 0.0 0.0 0.00 0.07 0.07 94 1008.5
20260510064514 50 116 2.0 2.0 0.00 0.07 0.07 93 1008.5
20260510064011 50 131 2.0 2.0 0.00 0.07 0.07 93 1008.6
20260510063508 50 258 0.0 1.0 0.00 0.07 0.07 92 1008.7
20260510063005 50 278 0.0 0.0 0.00 0.07 0.07 92 1008.6
20260510062500 50 223 3.0 3.0 0.00 0.07 0.07 92 1008.8
20260510061956 51 283 2.0 2.0 0.00 0.07 0.07 91 1008.7
20260510061453 51 277 1.0 2.0 0.00 0.07 0.07 90 1008.7
20260510060949 51 279 1.0 1.0 0.00 0.07 0.07 89 1008.5
20260510060446 52 254 1.0 2.0 0.00 0.07 0.07 88 1008.5
20260510055942 52 215 8.0 9.0 0.00 0.07 0.07 89 1008.4
20260510055438 51 222 7.0 10.0 0.00 0.07 0.07 89 1009.2
20260510054936 52 227 2.0 3.0 0.00 0.07 0.07 88 1009.2
20260510054431 52 206 3.0 3.0 0.00 0.07 0.07 88 1009.1
20260510053926 52 198 3.0 3.0 0.00 0.07 0.07 89 1009.2
20260510053422 52 213 4.0 5.0 0.00 0.07 0.07 89 1009.3
20260510052919 52 220 4.0 6.0 0.00 0.07 0.07 89 1009.8
20260510052415 51 238 3.0 3.0 0.05 0.07 0.07 89 1009.5
20260510051911 51 196 6.0 7.0 0.05 0.07 0.07 90 1009.5
20260510051408 51 211 3.0 3.0 0.07 0.06 0.06 91 1009.5
20260510050904 51 231 2.0 2.0 0.19 0.06 0.06 90 1010.1
20260510050401 52 197 4.0 5.0 0.24 0.05 0.05 89 1009.9
20260510045858 52 176 5.0 6.0 0.12 0.03 0.03 89 1009.7
20260510045355 52 195 4.0 5.0 0.07 0.01 0.01 89 1010.1
20260510044852 52 223 3.0 3.0 0.07 0.01 0.01 90 1010.2
20260510044348 52 184 4.0 6.0 0.00 0.00 0.00 89 1010.3
20260510043845 53 210 3.0 3.0 0.00 0.00 0.00 89 1010.2
20260510043341 53 219 2.0 2.0 0.00 0.00 0.00 88 1010.4
20260510042839 53 240 1.0 2.0 0.00 0.00 0.00 89 1010.3
20260510042335 53 244 1.0 2.0 0.00 0.00 0.00 91 1010.2
20260510041831 52 265 4.0 6.0 0.00 0.00 0.00 93 1009.9
20260510041329 52 234 1.0 1.0 0.00 0.00 0.00 94 1010.1
20260510040826 52 218 2.0 2.0 0.00 0.00 0.00 95 1009.8
20260510040322 51 226 1.0 3.0 0.00 0.00 0.00 95 1009.7
20260510035818 50 276 7.0 8.0 0.00 0.31 0.31 96 1009.9
20260510035314 50 297 5.0 6.0 0.00 0.31 0.31 95 1009.5
20260510034810 50 272 3.0 3.0 0.00 0.31 0.31 96 1008.8
20260510034308 50 262 1.0 1.0 0.00 0.31 0.31 95 1008.5
20260510033804 50 279 0.0 0.0 0.00 0.31 0.31 95 1008.6
20260510033301 50 277 0.0 0.0 0.00 0.31 0.31 95 1008.6
20260510032757 50 245 0.0 0.0 0.00 0.31 0.31 96 1008.5
20260510032253 50 272 1.0 1.0 0.00 0.31 0.31 95 1008.6
20260510031749 50 294 2.0 2.0 0.00 0.31 0.31 95 1008.8
20260510031245 50 276 0.0 0.0 0.00 0.31 0.31 95 1008.6
20260510030739 50 230 1.0 2.0 0.00 0.31 0.31 95 1008.7
20260510030237 50 214 1.0 1.0 0.00 0.31 0.31 95 1008.7
20260510025734 49 212 1.0 1.0 0.00 0.31 0.31 94 1008.8
20260510025232 49 204 1.0 2.0 0.00 0.31 0.31 94 1008.7
20260510024728 49 284 1.0 1.0 0.00 0.31 0.31 94 1008.2
20260510024224 50 312 2.0 2.0 0.00 0.31 0.31 93 1008.7
20260510023719 50 267 1.0 1.0 0.00 0.31 0.31 94 1008.3
20260510023212 50 295 0.0 0.0 0.00 0.31 0.31 93 1008.0
20260510022708 50 298 0.0 1.0 0.00 0.31 0.31 92 1008.2
20260510022203 50 276 0.0 0.0 0.00 0.31 0.31 92 1008.2
20260510021658 51 279 0.0 0.0 0.00 0.31 0.31 91 1008.1
20260510021155 51 116 1.0 2.0 0.00 0.31 0.31 91 1008.2
20260510020650 51 248 2.0 2.0 0.00 0.31 0.31 90 1008.1
20260510020145 52 278 3.0 3.0 0.00 0.31 0.31 90 1008.1
20260510015641 53 266 1.0 2.0 0.00 0.31 0.31 89 1008.1
20260510015139 53 269 0.0 0.0 0.00 0.31 0.31 88 1007.9
20260510014638 53 209 2.0 2.0 0.00 0.31 0.31 88 1007.7
20260510014136 53 223 4.0 5.0 0.00 0.31 0.31 88 1007.9
20260510013631 53 270 3.0 3.0 0.00 0.31 0.31 87 1007.9
20260510013127 54 212 4.0 5.0 0.00 0.31 0.31 87 1008.0
20260510012626 54 211 7.0 8.0 0.00 0.31 0.31 86 1007.8
20260510012123 54 202 5.0 6.0 0.00 0.31 0.31 86 1008.0
20260510011617 54 251 6.0 7.0 0.00 0.31 0.31 87 1007.9
20260510011113 54 194 3.0 3.0 0.00 0.31 0.31 87 1007.7
20260510010609 54 203 6.0 7.0 0.00 0.31 0.31 86 1007.6
20260510010107 54 205 7.0 8.0 0.00 0.31 0.31 87 1007.5
20260510005602 54 214 5.0 5.0 0.00 0.31 0.31 86 1007.5
20260510005100 54 217 6.0 7.0 0.00 0.31 0.31 86 1007.4
20260510004558 54 197 5.0 7.0 0.00 0.31 0.31 86 1007.4
20260510004056 54 197 3.0 3.0 0.00 0.31 0.31 87 1007.1
20260510003552 54 175 3.0 3.0 0.00 0.31 0.31 87 1007.3
20260510003048 55 195 6.0 7.0 0.00 0.31 0.31 86 1007.2
20260510002543 55 195 8.0 9.0 0.00 0.31 0.31 87 1007.3
20260510002040 55 247 3.0 3.0 0.00 0.31 0.31 86 1007.4
20260510001537 55 175 7.0 8.0 0.00 0.31 0.31 86 1007.2
20260510001036 55 198 4.0 5.0 0.00 0.31 0.31 86 1006.8
20260510000530 55 212 4.0 5.0 0.00 0.31 0.31 85 1007.2
20260510000027 55 196 5.0 6.0 0.00 0.31 0.31 85 1007.0
20260509235524 55 165 5.0 7.0 0.00 0.31 0.31 85 1006.9
20260509235021 55 222 4.0 5.0 0.00 0.31 0.31 84 1007.1
20260509234517 55 216 6.0 7.0 0.00 0.31 0.31 85 1007.0
20260509234016 56 222 7.0 8.0 0.00 0.31 0.31 84 1007.0
20260509233513 56 219 3.0 3.0 0.00 0.31 0.31 84 1006.9
20260509233010 56 213 5.0 6.0 0.00 0.31 0.31 84 1006.8
20260509232506 56 204 7.0 7.0 0.00 0.31 0.31 84 1006.6
20260509232003 56 211 6.0 7.0 0.00 0.31 0.31 84 1006.7
20260509231459 55 196 7.0 7.0 0.00 0.31 0.31 85 1006.7
20260509230957 55 199 6.0 7.0 0.00 0.31 0.31 86 1006.8
20260509230453 55 233 6.0 7.0 0.00 0.31 0.31 87 1006.8
20260509225950 55 186 6.0 7.0 0.00 0.31 0.31 87 1007.0
20260509225446 55 205 5.0 7.0 0.00 0.31 0.31 87 1006.9
20260509224942 55 223 3.0 3.0 0.00 0.31 0.31 87 1007.2
20260509224437 55 220 3.0 3.0 0.00 0.31 0.31 87 1007.2
20260509223935 55 206 5.0 7.0 0.00 0.31 0.31 86 1007.3
20260509223431 55 197 6.0 7.0 0.00 0.31 0.31 87 1007.2
20260509222929 55 200 4.0 6.0 0.00 0.31 0.31 87 1006.9
20260509222424 55 198 4.0 5.0 0.00 0.31 0.31 87 1006.8
20260509221920 55 202 4.0 5.0 0.00 0.31 0.31 86 1007.0
20260509221417 55 186 8.0 9.0 0.00 0.31 0.31 86 1006.9
20260509220913 55 206 6.0 8.0 0.00 0.31 0.31 86 1007.0
20260509220409 55 207 5.0 6.0 0.00 0.31 0.31 87 1006.9
20260509215904 55 216 5.0 6.0 0.00 0.31 0.31 87 1007.0
20260509215400 55 211 6.0 9.0 0.00 0.31 0.31 87 1006.7
20260509214858 55 191 7.0 8.0 0.00 0.31 0.31 87 1007.1
20260509214355 55 212 6.0 6.0 0.00 0.31 0.31 88 1007.2
20260509213852 55 197 7.0 8.0 0.00 0.31 0.31 89 1007.1
20260509213347 54 217 5.0 6.0 0.00 0.31 0.31 89 1007.1
20260509212846 54 214 5.0 8.0 0.00 0.31 0.31 90 1007.2
20260509212343 54 212 5.0 6.0 0.00 0.31 0.31 90 1007.1
20260509211838 54 223 10.0 13.0 0.00 0.31 0.31 90 1007.3
20260509211334 54 189 6.0 7.0 0.00 0.31 0.31 90 1007.3
20260509210831 54 209 6.0 7.0 0.00 0.31 0.31 90 1007.5
20260509210329 54 206 8.0 8.0 0.00 0.31 0.31 91 1007.6
20260509205828 54 233 6.0 7.0 0.00 0.31 0.31 91 1007.6
20260509205323 53 224 5.0 6.0 0.00 0.31 0.31 92 1007.5
20260509204820 53 180 5.0 5.0 0.00 0.31 0.31 92 1007.6
20260509204316 53 198 4.0 5.0 0.00 0.31 0.31 92 1007.7
20260509203812 53 215 5.0 6.0 0.00 0.31 0.31 92 1007.6
20260509203310 53 212 6.0 7.0 0.00 0.31 0.31 92 1007.7
20260509202806 53 180 8.0 10.0 0.00 0.31 0.31 92 1007.7
20260509202306 53 212 6.0 7.0 0.00 0.31 0.31 92 1007.9
20260509201801 53 200 6.0 8.0 0.00 0.31 0.31 92 1007.8
20260509201258 53 188 6.0 7.0 0.00 0.31 0.31 92 1008.0
20260509200755 53 176 8.0 9.0 0.00 0.31 0.31 92 1007.9
20260509200250 53 195 6.0 8.0 0.00 0.31 0.31 92 1008.0
20260509195746 53 193 7.0 8.0 0.00 0.31 0.31 92 1008.1
20260509195242 53 212 4.0 6.0 0.00 0.31 0.31 92 1008.0
20260509194736 53 215 8.0 8.0 0.00 0.31 0.31 93 1008.0
20260509194233 53 215 5.0 6.0 0.00 0.31 0.31 93 1008.2
20260509193730 53 215 4.0 5.0 0.00 0.31 0.31 92 1008.2
20260509193229 53 202 6.0 6.0 0.00 0.31 0.31 92 1008.2
20260509192726 52 223 7.0 7.0 0.05 0.31 0.31 92 1008.3
20260509192221 52 202 5.0 6.0 0.12 0.31 0.31 92 1008.4
20260509191716 53 211 4.0 5.0 0.07 0.30 0.30 91 1008.4
20260509191213 53 239 8.0 10.0 0.00 0.29 0.29 90 1008.6
20260509190709 53 214 5.0 6.0 0.00 0.29 0.29 90 1008.3
20260509190207 53 224 5.0 6.0 0.00 0.29 0.29 89 1008.5
20260509185704 53 209 5.0 6.0 0.00 0.29 0.29 89 1008.5
20260509185200 53 220 6.0 7.0 0.00 0.29 0.29 89 1008.4
20260509184658 53 200 5.0 6.0 0.00 0.29 0.29 89 1008.5
20260509184155 53 201 6.0 7.0 0.00 0.29 0.29 89 1008.4
20260509183651 53 211 4.0 5.0 0.00 0.29 0.29 89 1008.5
20260509183146 53 179 6.0 7.0 0.00 0.29 0.29 89 1008.4
20260509182642 53 201 7.0 8.0 0.00 0.29 0.29 89 1008.3
20260509182139 53 210 6.0 7.0 0.00 0.29 0.29 89 1008.8
20260509181637 53 209 9.0 10.0 0.00 0.29 0.29 89 1008.4
20260509181135 53 202 8.0 9.0 0.00 0.29 0.29 89 1008.4
20260509180631 52 217 5.0 6.0 0.00 0.29 0.29 89 1008.4
20260509180128 52 211 7.0 9.0 0.00 0.29 0.29 90 1008.4
20260509175624 52 245 7.0 9.0 0.00 0.29 0.29 91 1008.5
20260509175121 52 219 7.0 7.0 0.00 0.29 0.29 91 1008.4
20260509174616 52 198 9.0 10.0 0.00 0.29 0.29 92 1008.4
20260509174112 51 202 6.0 7.0 0.05 0.29 0.29 92 1008.3
20260509173607 51 220 4.0 5.0 0.05 0.29 0.29 92 1008.4
20260509173103 51 240 2.0 3.0 0.05 0.29 0.29 92 1008.5
20260509172601 52 268 0.0 1.0 0.00 0.28 0.28 91 1008.2
20260509172056 52 250 3.0 5.0 0.00 0.28 0.28 90 1008.3
20260509171552 52 212 5.0 6.0 0.00 0.28 0.28 91 1008.3
20260509171049 52 196 3.0 3.0 0.00 0.28 0.28 91 1008.4
20260509170545 52 182 4.0 5.0 0.00 0.28 0.28 90 1008.5
20260509170041 52 219 4.0 5.0 0.00 0.28 0.28 90 1008.4
20260509165540 52 218 7.0 8.0 0.00 0.28 0.28 90 1008.4
20260509165035 52 224 5.0 7.0 0.00 0.28 0.28 90 1008.6
20260509164532 52 233 2.0 2.0 0.00 0.28 0.28 89 1008.3
20260509164027 53 241 4.0 6.0 0.00 0.28 0.28 90 1008.4
20260509163525 53 212 4.0 5.0 0.00 0.28 0.28 90 1008.4
20260509163020 53 200 4.0 5.0 0.00 0.28 0.28 90 1008.3
20260509162518 52 223 6.0 8.0 0.00 0.28 0.28 90 1008.5
20260509162014 52 231 5.0 5.0 0.00 0.28 0.28 90 1008.8
20260509161510 52 225 3.0 5.0 0.00 0.28 0.28 89 1008.8
20260509161000 52 209 6.0 7.0 0.00 0.28 0.28 89 1008.9
20260509160456 52 190 3.0 3.0 0.00 0.28 0.28 89 1008.7
20260509155956 52 177 6.0 7.0 0.00 0.28 0.28 89 1008.8
20260509155453 52 181 7.0 9.0 0.00 0.28 0.28 89 1009.2
20260509154949 52 216 7.0 10.0 0.00 0.28 0.28 90 1008.8
20260509154445 52 239 4.0 5.0 0.00 0.28 0.28 90 1009.2
20260509153943 52 176 3.0 3.0 0.00 0.28 0.28 91 1008.9
20260509153440 51 179 7.0 7.0 0.07 0.28 0.28 93 1008.8
20260509152937 51 201 2.0 2.0 0.07 0.28 0.28 94 1009.2
20260509152432 51 236 0.0 1.0 0.00 0.27 0.27 95 1009.4
20260509151930 51 249 1.0 1.0 0.05 0.27 0.27 96 1009.4